Starlink 32538

operational
NORAD ID: 62170 Int'l Des: 2024-225 Owner: SPXS Country: US Constellation: starlink
LEOCIRCULAR

Starlink 32538について

説明を読み込み中...

リアルタイム位置

3D地球を読み込み中...

次回通過

高度履歴

Altitude vs Time

uPlot chart will show altitude changes over time

軌道要素

1 62170U 24225H 26035.72276997 .00003062 00000-0 26426-3 0 9990
2 62170 70.0004 247.7033 0002362 270.6474 89.4414 14.98333730 64931
Epoch: Feb 4, 2026 • Age: 8 hours

現在のステータス

高度 579.3 km
速度 7.57 km/s
衛星直下点 -22.51°S, 84.27°E
打ち上げ日 Nov 30, 2024
運用期間 1.1 years
タイプ internet

技術仕様

分類 Payload
質量 730.00 kg
乾燥質量 700.00 kg
総質量 730.00 kg
長さ 0.30 m
直径 4.10 m
スパン 29.00 m
形状 Box + pan
製造者 SPXS
バスタイプ Starlink V2M
フェーズステータス In Orbit
所有者/国 SPXS/US

大規模コンステレーション

Loading constellations...